Regional Weather Roundup
Issued by NWS

Home | Current Version | Previous Version | Text Only | Print | Product List | Glossary On
Versions: 1 2 3 4 5 6 7 8 9 10 11 12 13 14 15 16 17 18 19 20 21 22 23 24 25 26 27 28 29 30 31 32 33 34 35 36 37 38 39 40 41 42 43 44 45 46 47 48 49 50
000
ASUS45 KBOI 230110
RWRID

IDAHO REGIONAL WEATHER ROUNDUP
NATIONAL WEATHER SERVICE BOISE ID
700 PM MDT SAT JUL 22 2017

NOTE: "FAIR" INDICATES FEW OR NO CLOUDS BELOW 12000 FEET
WITH NO SIGNIFICANT WEATHER AND/OR OBSTRUCTIONS TO VISIBILITY

IDZ012-014-230200-
SOUTHWEST IDAHO


CITY           SKY/WX    TMP DP  RH WIND       PRES   REMARKS
BOISE          SUNNY     92  33  12 W14       30.01F
CALDWELL       SUNNY     92  46  20 NW5       29.99F
$$

IDZ016-017-230200-
SOUTHCENTRAL IDAHO


CITY           SKY/WX    TMP DP  RH WIND       PRES   REMARKS
BURLEY         SUNNY     84  40  21 SW12      30.07F
JEROME         SUNNY     90  35  14 SW7       30.08F
TWIN FALLS     SUNNY     90  34  13 VRB3      30.09F
$$

IDZ019>023-230200-
SOUTHEAST IDAHO


CITY           SKY/WX    TMP DP  RH WIND       PRES   REMARKS
IDAHO FALLS    SUNNY     86  47  25 CALM      30.13F
POCATELLO      SUNNY     90  28  11 W10       30.11F
REXBURG        SUNNY     86  32  14 S5        30.14F
$$

IDZ006-010-011-018-031-032-230200-
CENTRAL IDAHO MOUNTAINS


CITY           SKY/WX    TMP DP  RH WIND       PRES   REMARKS
MCCALL         SUNNY     83  33  16 W12       30.16F
HAILEY         SUNNY     86  37  17 S5        30.15F
STANLEY          N/A     85  25  11 N6        30.24F
SALMON         NOT AVBL
CHALLIS        SUNNY     90  26  10 CALM      30.11F
$$

IDZ002-004-006-007-026-230200-
NORTHERN IDAHO


CITY           SKY/WX    TMP DP  RH WIND       PRES   REMARKS
LEWISTON       SUNNY     92  44  19 S3        30.02F
LOWELL           N/A     83  51  33 N3        30.00F
COEUR D`ALENE  SUNNY     87  48  25 VRB6      30.08F
MULLAN PASS    SUNNY     71  42  35 VRB3      30.30F
$$



USA.gov is the U.S. government's official web portal to all federal, state and local government web resources and services.